Preview of NWS' New Version of Forecast
This preview is not operational and should not be used for support decisions.

Regional Weather Roundup (RWR)

Issued by National Weather Service (NWS)

                            
000
ASUS43 KTOP 200859
RWRKS 

WEATHER ROUNDUP FOR KANSAS
NATIONAL WEATHER SERVICE GOODLAND KS
400 AM CDT SAT APR 20 2019

NOTE:  "FAIR" INDICATES FEW OR NO CLOUDS BELOW 12,000 FEET WITH NO
SIGNIFICANT WEATHER AND/OR OBSTRUCTIONS TO VISIBILITY.

KSZ001>006-013>018-027>032-041>047-201000-
NORTHWEST KANSAS
  
CITY           SKY/WX    TMP DP  RH WIND       PRES   REMARKS
GOODLAND       CLEAR     51  33  50 SW16      29.92F                  
HAYS           CLEAR     43  32  65 SW3       29.96S                  
HILL CITY      CLEAR     49  34  56 SW7       29.93F                  
RUSSELL        CLEAR     45  32  60 SW15      29.94F                  
$$

KSZ061>065-074>080-084>089-201000-
SOUTHWEST KANSAS
  
CITY           SKY/WX    TMP DP  RH WIND       PRES   REMARKS
DODGE CITY     CLEAR     48  32  53 S12       29.97F                  
GARDEN CITY    CLEAR     42  32  67 S8        29.96F                  
GREAT BEND     CLEAR     43  34  70 S9        29.97F                  
LIBERAL        CLEAR     46  36  68 SW8       29.99F                  
$$

KSZ066>073-081>083-090>101-201000-
SOUTHEAST KANSAS
  
CITY           SKY/WX    TMP DP  RH WIND       PRES   REMARKS
CHANUTE        CLEAR     42  35  76 CALM      29.98F                  
COFFEYVILLE    CLEAR     39  36  89 CALM      29.98F                  
HUTCHINSON     CLEAR     41  33  73 S3        29.98S                  
MEDICINE LODGE   N/A     42  39  89 CALM      30.00S                  
NEWTON         CLEAR     45  32  60 S8        29.98F                  
PARSONS        CLEAR     37  35  92 CALM      29.99F                  
WICHITA INTL   PTCLDY    44  34  67 SW3       29.98F                  
WICHITA JABRA  CLEAR     47  33  58 SW9       29.99S                  
WINFIELD       CLEAR     44  38  79 E3        30.00F                  
$$

KSZ007>012-019>026-033>040-048>060-102>105-201000-
NORTHEAST KANSAS
  
CITY           SKY/WX    TMP DP  RH WIND       PRES   REMARKS
CONCORDIA      CLEAR     49  31  49 S9        29.94F                  
EMPORIA        CLEAR     43  33  68 CALM      29.97S                  
LAWRENCE       CLEAR     35  32  88 NW5       29.97S                  
MANHATTAN      CLEAR     37  32  82 CALM      29.97S                  
OLATHE IND     CLEAR     42  35  76 CALM      29.97S                  
OLATHE EXE     CLEAR     42  33  70 CALM      29.96S                  
SALINA         CLEAR     40  31  70 SE7       29.97S                  
TOPEKA BILLARD CLEAR     38  35  89 CALM      29.97R                  
TOPEKA FORBES  CLEAR     39  34  82 CALM      29.96S                  
$$